CAPE
0 0 0 0 0 0 9 589 564 579 708 774 532 546 338 82 4 3 4 0 0 0 0 0 0 0 0 1 0 0 0 4 9 9 4 10 11 10 5 27 23 0 0
0 0 0 0 0 0 0 0 0 64 435 567 785 667 504 321 79 0 0 0 0 0 0 0 0 0 0 3 0 0 0 9 7 1 0 0 0 2 6 8 29 24 3
0 0 0 0 0 0 0 0 0 0 0 493 563 621 488 348 122 0 0 0 0 0 0 0 0 0 0 0 0 0 0 0 3 0 0 0 0 0 0 5 1 10 12
0 0 0 0 0 0 0 0 0 0 0 0 425 446 280 172 55 17 0 0 0 0 0 0 0 0 0 0 0 0 0 0 0 0 0 0 0 0 0 0 0 0 1
0 0 0 0 0 0 0 0 0 0 0 0 2 279 339 178 98 65 15 0 0 0 0 0 0 0 0 0 0 0 0 0 0 0 0 0 0 0 0 0 0 0 2
0 0 0 0 0 0 0 0 0 0 0 0 0 4 291 312 128 7 6 2 1 0 0 2 0 0 0 0 0 0 0 0 0 0 0 0 0 0 0 0 0 0 0
0 0 0 0 0 0 0 0 0 1 0 1 0 4 3 298 237 56 26 3 1 2 2 0 0 0 0 0 0 0 0 0 0 0 0 0 0 0 0 0 0 0 0
0 0 0 0 0 0 0 0 0 1 2 2 2 4 3 3 243 261 77 2 1 0 0 0 0 0 0 0 0 0 0 0 0 0 0 0 0 0 0 0 0 0 0
0 0 0 0 0 0 0 1 1 0 1 2 2 4 4 5 135 359 299 106 2 2 0 0 0 0 0 0 0 0 0 0 0 0 2 0 0 0 0 0 0 0 0
0 0 0 0 0 0 0 0 0 0 1 1 2 4 4 5 2 235 262 72 9 0 2 1 0 0 0 0 0 0 0 0 0 0 0 0 0 0 0 0 0 0 0
0 0 0 0 0 0 0 0 0 0 0 1 2 3 5 4 2 0 272 167 85 15 1 2 2 1 1 0 0 0 0 0 0 0 0 0 0 0 0 0 0 0 0
0 0 0 0 0 0 0 0 0 0 0 1 1 2 3 3 4 0 37 208 107 89 11 0 2 1 2 2 1 1 0 0 0 0 0 0 0 0 0 0 0 0 0
0 0 0 0 0 0 0 0 0 0 0 1 0 2 3 4 2 1 4 188 110 98 92 29 1 2 1 1 1 1 0 0 0 0 0 0 0 0 0 0 0 0 0
0 0 0 0 0 0 0 0 0 0 0 0 0 1 3 5 4 6 4 0 136 86 123 90 5 0 2 1 1 1 0 0 0 0 0 0 0 0 0 0 0 0 0
0 0 0 0 0 0 0 0 0 0 0 0 0 0 2 2 3 5 5 1 0 80 83 97 28 8 15 0 1 2 0 0 0 0 0 0 0 0 0 0 0 0 0
0 0 0 0 0 0 0 0 0 0 0 0 0 0 2 2 4 5 5 1 2 62 96 43 42 19 11 4 10 0 0 2 1 0 0 0 0 0 0 0 0 0 0
0 0 0 0 0 0 0 0 0 0 0 0 0 0 1 1 3 4 4 2 3 1 47 43 51 21 9 0 0 0 0 2 5 0 0 0 0 0 0 0 0 0 0
0 0 0 0 0 0 0 0 0 0 0 0 0 0 1 1 1 2 4 2 2 2 0 26 40 24 5 0 0 0 0 2 6 5 3 1 0 0 0 0 0 0 0
0 0 0 0 0 0 0 0 0 0 0 0 0 0 0 1 1 2 4 3 3 2 7 2 2 13 0 0 0 0 0 0 1 0 0 0 0 0 0 0 0 0 0
0 0 0 0 0 0 0 0 0 0 0 0 0 0 0 0 0 0 2 2 3 4 4 7 8 3 2 0 0 0 1 1 0 0 0 0 0 0 0 0 0 0 0
0 0 0 0 0 0 0 0 0 0 0 0 0 0 0 0 0 0 1 1 2 2 4 3 4 5 5 4 1 0 0 0 0 0 0 0 0 0 0 0 0 0 0
0 0 0 0 0 0 0 0 0 0 0 0 0 0 0 0 0 0 0 0 0 1 1 2 2 3 2 6 8 2 0 1 0 0 0 0 0 0 0 0 0 0 0
0 0 0 0 0 0 0 0 0 0 0 0 0 0 0 0 0 0 0 0 0 0 1 0 1 3 3 2 4 5 2 0 0 0 0 0 0 0 0 0 1 0 0
0 0 0 0 0 0 0 0 0 0 0 0 0 0 0 0 0 0 0 0 0 0 0 0 0 1 1 2 0 1 1 2 0 1 1 0 0 0 0 0 0 0 0
0 0 0 0 0 0 0 0 0 0 0 0 0 0 0 0 0 0 0 0 0 1 0 0 0 0 0 0 1 1 1 2 2 2 1 0 0 0 0 0 0 0 0
0 0 0 0 0 0 0 0 0 0 0 0 0 0 0 0 0 0 0 1 3 2 3 2 1 0 1 0 0 1 2 3 2 0 1 1 1 1 1 1 1 1 0
CIN
0 0 0 0 0 -1 -104 -16 -11 -13 -6 -4 -2 0 -17 -55 -153 -198 -60 0 0 0 0 0 0 0 0 -25 0 0 0 -5 -16 -15 -26 -18 -21 -11 -11 -7 -6 0 0
0 0 0 0 0 0 0 0 0 -4 -4 -7 -2 -1 -3 -27 -102 -44 -62 0 0 0 0 0 0 0 0 -31 0 0 0 -10 -21 -9 0 0 0 -21 -21 -8 -6 -5 -10
0 0 0 0 0 0 0 0 0 0 0 -1 -11 -1 -6 -10 -29 0 0 0 0 0 0 0 0 0 0 0 0 0 0 -2 -17 0 0 -1 0 0 -4 -16 -17 -10 -7
0 0 0 0 0 0 0 0 0 0 0 0 -1 -3 -5 -9 -36 -50 0 0 0 0 0 0 0 0 0 0 0 0 0 0 0 0 0 0 0 0 0 0 0 -4 -2
0 0 0 0 0 0 0 0 0 0 0 0 0 -5 -3 -14 -20 -30 -79 0 0 0 0 0 0 0 0 0 0 0 0 0 0 0 0 0 0 0 0 0 0 0 -1
0 0 0 0 0 0 0 0 0 0 0 0 0 0 -4 -2 -5 -9 -2 -2 0 0 0 -23 0 0 0 0 0 0 0 0 0 0 0 0 0 0 0 0 0 0 0
0 0 0 0 0 0 0 0 0 0 0 0 0 0 0 -8 -5 -17 -44 -7 0 0 0 -2 0 0 0 0 0 0 0 0 0 0 0 0 0 0 0 0 0 0 0
0 0 0 0 0 0 0 0 0 0 0 0 0 0 0 -4 -5 -8 -9 -1 -1 -1 0 0 0 0 0 0 0 0 0 0 0 0 0 0 0 0 0 0 0 0 -2
0 0 0 0 0 0 0 0 0 0 0 0 0 0 0 0 -4 -3 -5 -21 -3 -1 0 0 0 0 0 0 0 0 0 0 0 0 -6 0 0 0 0 0 0 0 0
0 0 0 0 0 0 0 0 0 0 0 0 0 0 0 0 0 -3 -5 -11 -34 0 0 0 0 0 0 0 0 0 0 0 0 0 0 0 0 0 0 0 0 0 0
0 0 0 0 0 0 0 0 0 0 0 0 0 0 0 0 0 0 -2 -7 -33 -45 -6 0 0 0 0 0 0 0 0 0 0 0 0 0 0 0 0 0 0 0 0
0 0 0 0 0 0 0 0 0 0 0 0 0 0 0 0 0 0 -37 -14 -26 -24 -13 -1 0 0 0 0 0 0 0 0 0 0 0 0 0 0 0 0 0 0 0
0 0 0 0 0 0 0 0 0 0 0 0 0 0 0 0 0 0 0 -13 -20 -20 -10 -4 -1 0 0 0 0 0 0 0 0 0 0 0 0 0 0 0 0 0 0
0 0 0 0 0 0 0 0 0 0 0 0 0 0 0 0 0 0 0 0 -4 -17 -17 -1 -4 0 -28 0 0 0 0 0 0 0 0 0 0 0 0 0 0 0 0
0 0 0 0 0 0 0 0 0 0 0 0 0 0 0 0 0 0 0 0 0 -17 -24 -11 -18 -18 -38 -10 -57 -110 0 0 0 0 0 0 0 0 0 0 0 0 0
0 0 0 0 0 0 0 0 0 0 0 0 0 0 0 0 0 0 0 0 0 -12 -24 -21 -23 -20 -29 -65 -126 0 0 -55 -17 -1 0 0 0 0 0 0 0 0 0
0 0 0 0 0 0 0 0 0 0 0 0 0 0 0 0 0 0 0 0 0 0 -12 -31 -13 -14 -40 -35 0 0 0 -36 -63 -18 -46 0 0 0 0 0 0 0 0
0 0 0 0 0 0 0 0 0 0 0 0 0 0 0 0 0 0 0 0 0 0 0 -13 -26 -26 -39 0 0 0 0 -52 -60 -59 -58 -41 0 0 0 0 0 0 0
0 0 0 0 0 0 0 0 0 0 0 0 0 0 0 0 0 0 0 0 0 0 0 0 -44 -19 -8 0 0 0 0 -23 -23 -45 0 0 0 0 0 0 0 0 0
0 0 0 0 0 0 0 0 0 0 0 0 0 0 0 0 0 0 0 0 0 0 0 0 0 0 0 0 0 0 0 0 0 0 0 0 0 0 0 0 0 0 0
0 0 0 0 0 0 0 0 0 0 0 0 0 0 0 0 0 0 0 0 0 0 0 0 0 0 0 0 0 0 0 0 0 0 0 0 0 0 0 0 0 0 0
0 0 0 0 0 0 0 0 0 0 0 0 0 0 0 0 0 0 0 0 0 0 0 0 0 0 0 0 0 0 0 0 0 0 0 0 0 0 0 0 0 0 0
0 0 0 0 0 0 0 0 0 0 0 0 0 0 0 0 0 0 0 0 0 0 0 0 0 0 0 0 0 0 0 0 0 0 0 0 0 0 0 0 0 0 0
0 0 0 0 0 0 0 0 0 0 0 0 0 0 0 0 0 0 0 0 0 0 0 0 0 0 0 0 0 0 0 0 0 0 0 0 0 0 0 0 0 0 0
0 0 0 0 0 0 0 0 0 0 0 0 0 0 0 0 0 0 0 0 0 0 0 0 0 0 0 0 0 0 0 0 0 0 0 0 0 0 0 0 0 0 0
0 0 0 0 0 0 0 0 0 0 0 0 0 0 0 0 0 0 0 0 0 0 0 0 0 0 0 0 0 0 0 0 0 0 0 0 0 0 0 0 0 0 0
Wind_Speed
45 41 41 37 37 34 34 35 34 34 33 33 34 32 30 28 28 27 26 22 21 20 17 16 16 17 16 15 14 12 13 11 8 8 11 11 12 12 11 4 2 2 2
50 46 43 41 39 37 35 36 35 37 36 36 33 34 33 31 28 28 28 27 24 21 22 17 16 16 17 16 16 14 15 14 10 12 11 13 15 15 14 11 9 7 4
49 49 47 45 44 42 41 41 39 38 36 37 35 35 32 34 34 34 32 31 27 27 24 21 19 17 18 18 17 16 16 17 13 11 13 16 17 14 14 13 11 9 8
47 47 47 49 47 47 45 44 43 42 40 37 39 39 39 39 37 34 32 31 30 27 27 25 22 20 20 20 19 17 17 17 16 15 16 15 14 14 18 13 11 10 10
47 48 48 49 48 47 47 47 47 47 45 46 37 42 41 39 36 35 34 34 32 30 25 29 26 23 23 21 19 19 17 18 19 18 17 17 18 17 13 17 16 15 12
47 47 47 48 48 47 47 47 47 49 48 47 48 40 44 41 38 36 36 36 34 33 30 33 27 25 24 23 21 21 21 22 21 19 19 18 18 19 17 17 12 12 15
46 47 48 48 49 49 50 48 48 50 49 51 50 49 41 43 39 37 37 36 35 34 30 32 24 23 21 20 20 21 21 22 21 22 23 21 20 19 18 18 17 16 16
45 45 45 45 46 47 47 48 49 50 49 50 53 51 51 42 41 38 37 37 37 34 32 29 28 25 23 22 21 22 22 22 22 20 20 21 21 21 20 20 19 19 17
44 45 45 44 45 45 45 47 48 49 49 49 50 52 49 49 45 40 37 37 37 36 34 34 30 27 26 24 22 23 23 22 23 21 19 19 18 18 18 17 18 19 20
44 44 44 43 43 43 43 43 44 47 48 48 48 50 51 48 46 44 40 37 34 34 34 34 33 31 29 28 26 24 24 23 23 23 21 19 17 17 17 17 17 19 19
43 42 42 41 40 39 39 41 41 43 45 46 46 48 50 49 47 45 43 39 35 34 35 34 34 34 31 29 28 26 26 25 24 23 23 22 19 19 19 17 17 18 19
41 40 40 39 37 37 37 37 38 39 41 42 44 45 46 46 49 49 49 42 39 35 33 34 34 34 33 30 28 27 27 27 26 24 23 23 22 21 20 19 18 18 18
39 38 37 35 35 35 34 34 35 35 38 38 39 40 41 46 44 44 46 44 41 39 37 36 35 34 33 33 32 32 29 28 26 26 25 25 24 23 22 21 21 21 21
37 36 34 34 33 33 32 32 33 32 33 33 35 36 37 38 44 43 40 39 42 40 37 36 35 34 34 33 32 31 30 29 29 27 26 26 25 24 23 22 21 21 22
35 33 33 32 32 31 31 31 30 29 29 29 31 31 31 34 38 37 38 39 42 42 37 36 34 32 32 33 32 31 30 30 29 29 28 26 24 23 22 23 23 22 23
33 31 31 31 31 31 29 30 28 27 27 28 24 26 27 28 29 36 38 37 41 42 37 39 37 32 32 31 30 29 30 29 29 28 26 25 24 23 23 22 22 22 22
31 31 29 29 29 30 30 28 26 25 25 23 23 23 23 25 26 29 32 36 34 38 39 36 37 34 33 31 30 29 29 27 27 28 27 27 27 26 25 24 23 23 21
30 30 29 28 28 28 29 27 26 23 23 22 21 22 21 23 24 24 25 31 35 38 31 33 35 34 33 32 32 30 30 29 28 28 27 27 26 25 24 25 25 26 25
28 28 28 27 27 28 28 26 24 24 22 23 22 21 20 21 22 25 23 25 23 23 28 29 32 33 33 34 32 31 32 31 30 28 28 27 28 27 26 27 29 29 29
28 28 27 26 26 27 26 24 22 23 23 22 22 21 19 19 18 19 21 22 23 20 18 25 23 23 28 32 32 31 31 33 32 31 30 29 28 27 26 27 27 29 28
29 27 27 25 25 26 26 24 23 23 23 23 21 20 18 16 16 16 15 16 19 21 22 18 19 24 25 29 31 32 32 33 33 32 31 29 27 27 25 24 25 26 25
29 27 26 26 26 27 26 23 22 23 22 22 20 19 17 15 15 14 14 13 15 17 20 22 23 24 27 28 28 31 33 31 31 31 29 28 25 24 24 24 24 23 22
28 28 26 26 26 27 26 25 25 23 21 21 20 19 18 15 15 14 13 12 12 12 15 17 20 23 24 24 26 27 28 29 29 28 27 25 23 21 21 20 19 17 18
26 27 26 25 26 26 26 25 26 24 22 21 21 20 19 17 15 14 13 13 13 13 14 15 17 20 21 23 24 24 23 23 23 21 20 19 19 18 17 16 16 17 17
26 25 26 26 26 26 26 26 26 25 24 23 21 20 18 19 17 15 14 13 13 13 12 14 16 16 17 17 18 17 17 17 16 15 15 16 16 15 14 14 14 15 14
27 25 25 25 26 25 25 27 26 25 24 23 22 21 20 19 19 17 15 15 15 14 15 14 13 14 14 14 13 12 11 10 9 10 11 12 13 13 12 13 13 13 13
Wind_Direction
297 301 304 297 292 292 279 273 267 263 257 253 253 252 250 250 251 250 249 245 246 245 244 244 244 243 237 240 247 247 251 259 255 266 282 293 291 293 297 276 247 277 301
292 293 296 298 296 290 286 279 276 271 262 256 252 254 251 252 250 249 248 246 242 240 245 241 240 235 237 238 243 241 250 257 243 262 268 279 286 284 283 290 283 293 290
295 292 291 292 291 288 286 281 276 274 275 261 255 254 253 252 250 250 248 246 242 242 242 243 240 233 238 238 237 241 241 249 246 250 273 279 281 278 282 276 277 282 290
300 296 292 289 288 286 285 282 277 273 272 276 253 249 249 249 250 249 247 245 246 241 241 244 243 238 243 243 239 242 238 245 243 252 265 285 291 282 280 279 269 271 274
301 298 294 291 290 288 284 281 277 272 271 265 278 252 248 249 250 248 246 244 244 247 233 244 242 242 244 244 239 241 236 242 248 250 258 270 280 281 290 278 277 280 272
303 299 297 293 290 289 285 282 277 271 268 267 263 270 248 247 247 246 246 244 243 244 247 238 240 243 246 244 240 242 242 245 248 248 257 257 265 271 279 290 279 283 281
304 301 298 294 290 288 284 281 277 272 269 264 262 259 267 244 244 244 246 245 242 240 236 236 236 241 241 243 240 240 242 244 248 251 254 256 262 272 275 282 291 287 296
307 302 300 295 291 288 286 281 276 272 269 265 259 259 256 257 245 244 244 244 242 240 236 235 237 238 240 241 241 246 247 245 250 250 255 258 258 263 272 277 281 287 291
307 305 300 296 292 289 287 281 277 273 268 265 260 255 257 254 248 246 242 243 244 244 241 239 238 237 239 238 241 246 245 248 250 253 254 259 261 261 265 269 276 281 281
309 306 303 298 294 291 287 285 279 273 267 264 261 255 253 253 250 246 242 240 241 241 241 239 239 239 240 240 241 242 244 248 249 253 257 258 260 261 268 268 270 278 283
312 308 304 300 296 294 291 287 281 274 267 262 260 256 251 250 248 247 241 240 240 240 242 241 240 239 239 240 243 237 241 241 250 252 255 256 257 263 265 270 270 272 279
313 310 306 300 296 294 292 287 282 277 268 264 260 255 251 249 247 244 246 238 239 240 241 241 241 240 239 238 237 237 243 245 248 247 252 256 259 260 266 268 266 270 276
312 309 306 301 297 295 292 289 284 281 271 265 262 256 252 248 246 243 247 238 239 239 242 243 242 241 239 238 239 243 245 246 246 249 251 255 258 260 265 266 270 271 276
311 307 305 302 300 298 295 293 290 285 279 271 263 256 253 250 244 243 246 242 239 238 241 242 240 240 240 240 240 243 245 248 249 251 253 257 257 257 262 265 266 268 273
309 306 304 303 303 302 300 300 295 291 283 278 269 262 259 254 247 244 245 241 243 238 238 240 243 236 240 240 241 244 244 248 250 253 254 258 252 256 261 266 267 268 272
308 306 305 305 306 307 300 301 299 296 283 280 281 271 264 259 253 245 245 245 247 239 237 238 240 240 241 240 239 242 246 248 250 253 254 256 254 259 262 263 264 265 268
309 308 306 306 305 308 307 304 298 295 290 285 280 279 271 263 259 254 247 245 246 241 235 235 236 239 242 242 241 242 246 249 250 253 254 259 262 262 265 265 264 264 266
308 309 307 307 308 310 313 309 308 304 295 300 293 293 283 268 264 256 251 252 251 242 240 232 236 239 242 244 246 245 249 253 255 256 257 260 261 262 264 267 267 269 271
305 307 308 306 309 317 316 313 313 315 308 308 309 303 295 283 272 260 256 253 251 244 240 241 239 240 244 244 247 246 249 255 257 259 261 263 264 265 264 267 270 272 275
309 308 308 308 314 318 317 317 317 319 317 310 311 308 306 299 288 274 264 261 256 250 255 243 243 244 246 250 249 248 252 256 259 262 264 265 266 266 265 268 270 272 275
315 311 313 311 312 316 319 321 321 323 317 316 319 320 317 308 306 291 287 276 263 253 254 254 251 253 258 257 254 250 253 257 260 262 265 265 265 267 265 264 270 273 277
319 314 312 314 316 319 322 319 320 318 318 318 323 323 324 324 320 311 294 290 277 266 264 261 263 265 263 267 263 258 256 257 259 261 264 265 262 265 267 268 271 275 277
318 320 315 313 318 324 325 321 320 317 317 321 328 329 330 328 326 324 317 306 293 288 275 269 269 268 273 271 271 268 262 257 259 262 262 261 261 261 267 269 269 270 274
313 317 318 316 318 320 324 322 321 320 321 321 327 332 334 334 327 318 325 320 313 297 291 286 278 277 278 280 278 274 267 263 261 259 261 259 262 262 265 267 271 273 275
312 313 318 318 317 319 322 325 323 324 325 326 325 328 329 333 330 326 322 322 329 325 306 298 294 288 287 291 293 284 277 268 260 259 258 260 258 263 265 272 278 280 281
313 312 314 317 318 318 321 326 326 325 325 326 331 329 328 329 332 328 322 330 333 335 342 335 322 307 311 304 306 303 291 289 275 260 259 262 267 264 273 275 280 285 285